Lid_Strength_Index
4 4 4 4 4 4 4 4 4 4 4 4 4 4 3 3 3 4 7 5 3 -1 -1 1 2 2 2 5 4 4 11 13 11 10 9 6 8 5 4 6 5 4 5 4 2
4 4 4 4 4 4 4 4 4 4 4 4 4 4 3 3 5 7 3 -3 -3 -1 2 3 5 4 6 6 6 8 12 11 8 7 8 6 7 7 7 7 7 6 4 3 2
4 4 4 4 4 4 4 4 4 4 4 4 4 4 3 3 7 8 -3 -2 -2 -1 2 2 3 4 6 6 7 8 10 7 7 6 6 7 7 5 7 9 7 7 5 4 3
5 5 5 5 4 4 4 4 4 4 4 4 4 4 3 5 13 6 -1 -1 -2 -0 2 4 5 7 8 8 6 10 7 6 6 5 6 7 6 7 7 6 5 4 4 4 4
5 5 5 5 5 5 5 4 5 5 5 5 4 3 5 8 8 6 -2 -1 0 1 3 5 8 8 9 8 7 8 7 6 5 5 5 5 6 7 6 5 4 4 4 4 4
4 4 4 5 4 4 4 5 5 5 5 5 4 4 7 13 7 5 1 1 1 2 4 5 7 7 8 7 7 6 6 6 6 6 5 6 6 6 6 4 5 5 5 4 4
5 5 5 5 5 5 5 5 5 5 5 4 4 4 6 10 6 5 3 3 2 4 5 5 5 7 7 8 5 6 8 7 6 6 7 5 8 8 5 5 6 5 5 4 4
5 5 5 5 5 5 5 6 5 5 4 4 4 4 10 5 5 6 6 6 3 3 4 5 5 7 8 8 9 11 9 12 7 6 6 7 12 7 5 6 6 6 5 4 4
6 6 6 6 6 6 6 6 6 5 3 3 5 7 9 2 5 5 6 6 5 4 5 2 5 8 9 11 14 13 15 13 12 6 7 8 10 7 5 6 6 6 5 5 4
6 6 6 7 7 7 7 6 6 5 4 3 3 8 7 7 4 5 6 6 7 5 5 7 8 11 12 13 16 15 15 14 12 8 7 9 10 7 6 6 7 6 6 5 5
6 6 6 7 7 7 9 11 11 12 7 8 8 7 7 5 4 5 5 6 7 8 10 10 11 12 11 12 11 12 13 13 11 7 8 9 9 8 7 7 7 6 6 5 5
6 6 7 7 7 8 10 11 11 11 14 10 9 8 6 6 7 5 5 8 9 11 11 12 13 10 8 10 11 12 12 13 9 8 9 10 10 7 7 7 6 6 6 6 5
6 6 7 7 8 10 12 12 9 10 15 13 10 10 10 8 9 8 7 8 10 12 11 12 11 8 8 9 10 12 12 13 12 9 8 9 11 10 7 7 6 5 5 5 5
6 6 7 8 11 11 11 9 9 10 18 15 13 11 10 10 12 7 6 8 10 11 11 12 9 9 9 10 9 13 9 10 10 11 13 9 15 12 9 8 7 6 6 5 5
6 6 7 8 12 12 10 9 9 13 19 10 11 9 11 11 10 9 6 8 10 10 11 11 10 10 10 10 8 10 9 11 11 11 13 12 15 13 10 10 8 7 6 5 4
6 6 7 10 12 10 10 10 12 17 20 13 10 12 12 12 11 8 8 7 8 9 10 10 8 9 9 8 8 7 10 12 13 12 15 12 13 14 12 10 8 7 6 5 5
6 7 8 8 13 10 10 12 19 20 13 12 13 13 13 14 12 11 9 10 11 13 13 11 10 9 8 11 9 10 13 16 17 17 16 12 14 12 9 8 7 7 6 5 5
7 8 9 9 10 10 11 16 21 15 14 12 13 12 13 13 13 12 13 11 10 12 13 14 14 11 9 10 11 13 12 15 19 19 17 13 15 12 7 6 6 5 5 5 5
8 11 11 11 9 10 15 19 19 15 13 14 14 14 14 12 13 13 13 13 10 11 14 15 14 9 8 8 9 12 14 11 15 15 17 14 12 9 7 7 7 6 6 5 5
11 13 12 9 9 12 16 17 16 13 12 13 16 14 16 14 14 14 15 12 12 10 11 13 15 11 8 9 8 9 11 14 16 17 18 16 14 13 10 9 7 7 6 5 5
12 15 10 9 11 14 17 17 14 11 11 13 14 15 15 15 14 15 14 12 11 10 9 10 13 13 11 11 11 12 13 14 13 14 15 17 14 11 10 8 8 7 6 5 6
14 17 10 9 16 16 15 14 12 12 9 11 12 13 14 14 15 15 14 13 10 10 13 12 13 14 13 10 9 9 11 12 13 17 15 13 13 9 8 7 7 6 5 5 5
14 14 9 10 17 16 13 12 11 11 11 11 12 12 12 14 15 13 13 10 11 11 13 12 14 16 16 13 10 12 11 11 15 15 14 16 15 9 9 8 7 7 7 6 5
10 13 11 9 8 12 12 11 12 9 10 10 11 11 12 14 13 14 13 11 11 11 7 11 14 15 15 14 12 13 11 11 12 14 15 14 14 11 10 8 7 6 6 6 6
7 9 8 11 9 9 8 9 11 11 8 9 11 11 12 15 14 14 14 14 12 10 12 14 17 15 14 11 11 11 11 10 12 12 13 14 13 12 10 10 7 6 6 5 5
7 8 7 9 8 9 9 10 11 10 9 10 10 9 9 13 12 16 15 15 16 13 14 14 17 15 13 12 11 11 10 10 10 10 11 13 13 10 9 9 9 6 6 6 7
3 3 6 8 10 10 10 9 9 8 8 7 8 9 10 9 9 10 12 13 14 15 16 15 16 16 17 12 11 13 11 10 10 10 11 13 12 10 9 7 7 6 6 7 6